Date String (YYYY-MM-DD hh:mm:ss) UTC,Instrument flags,Ambient pressure (hPa),Sample flow (lpm),Bypass flow (lpm),Sample temperature (°C),Ambient temperature (°C),ASC tube jacket temperature (°C),LED temperature (°C),Box temperature (°C),Sample RH (%),Span deviation,Mass concentration (μg/m³),Mass concentration (μg/m³),Mass concentration (μg/m³)
DateTimeUTC,F1_M11,P_M11,Q1_M11,Q2_M11,T1_M11,T2_M11,T3_M11,T4_M11,T5_M11,U1_M11,ZSPAN_M11,X0_M11,X2_M11,X1_M11
2022-05-18 19:00:00,,0826.0,5.00,0.00,29.5,28.5,00.0,38.3,31.5,16.8,0000.0,0010.61,0003.81,0002.63
2022-05-18 19:01:00,,0826.0,4.99,0.00,29.6,28.6,00.0,38.4,31.5,16.5,0000.0,0010.43,0003.84,0002.66
2022-05-18 19:02:00,,0826.0,5.00,0.00,29.6,28.7,00.0,38.4,31.6,16.7,0000.0,0011.13,0003.86,0002.68
2022-05-18 19:03:00,,0826.0,5.01,0.00,29.6,28.8,00.0,38.4,31.6,17.3,0000.0,0011.09,0003.88,0002.71
2022-05-18 19:04:00,,0826.0,4.99,0.00,29.7,28.9,00.0,38.4,31.6,16.4,0000.0,0011.15,0003.86,0002.73
2022-05-18 19:05:00,,0826.0,5.00,0.00,29.7,28.7,00.0,38.4,31.6,16.3,0000.0,0010.62,0003.84,0002.75
2022-05-18 19:06:00,,0826.0,5.00,0.00,29.7,27.8,00.0,38.4,31.3,16.2,0000.0,0010.49,0003.86,0002.78
2022-05-18 19:07:00,,0826.0,5.01,0.00,29.6,27.2,00.0,38.3,31.1,16.2,0000.0,0010.49,0003.89,0002.79
2022-05-18 19:08:00,,0825.9,5.00,0.00,29.5,27.1,00.0,38.3,31.1,16.8,0000.0,0010.42,0003.95,0002.81
2022-05-18 19:09:00,,0825.9,4.99,0.00,29.4,27.2,00.0,38.3,31.1,17.2,0000.0,0010.39,0003.95,0002.82
2022-05-18 19:10:00,,0825.9,5.00,0.00,29.4,27.4,00.0,38.3,31.1,16.7,0000.0,0010.45,0003.97,0002.83
2022-05-18 19:11:00,,0825.7,5.00,0.00,29.4,27.6,00.0,38.3,31.2,16.6,0000.0,0010.46,0003.94,0002.83
2022-05-18 19:12:00,,0825.8,5.01,0.00,29.4,27.8,00.0,38.3,31.2,17.5,0000.0,0010.84,0003.93,0002.83
2022-05-18 19:13:00,,0825.8,5.00,0.00,29.4,28.0,00.0,38.3,31.3,17.2,0000.0,0010.39,0003.97,0002.85
2022-05-18 19:14:00,,0825.8,4.99,0.00,29.4,28.1,00.0,38.3,31.3,17.0,0000.0,0010.55,0003.96,0002.84
2022-05-18 19:15:00,,0825.8,5.01,0.00,29.5,28.3,00.0,38.3,31.4,16.4,0000.0,0010.42,0003.95,0002.84
2022-05-18 19:16:00,,0826.0,5.01,0.00,29.5,28.4,00.0,38.3,31.4,16.6,0000.0,0010.54,0004.01,0002.86
2022-05-18 19:17:00,,0826.0,4.99,0.00,29.5,28.5,00.0,38.4,31.5,16.5,0000.0,0010.51,0004.01,0002.88
2022-05-18 19:18:00,,0825.9,5.01,0.00,29.6,28.6,00.0,38.4,31.5,16.7,0000.0,0010.43,0003.98,0002.88
2022-05-18 19:19:00,,0825.9,4.99,0.00,29.6,28.7,00.0,38.4,31.6,16.6,0000.0,0010.10,0003.93,0002.90
2022-05-18 19:20:00,,0825.7,5.01,0.00,29.7,28.8,00.0,38.4,31.6,16.5,0000.0,0010.47,0003.92,0002.91
2022-05-18 19:21:00,,0825.8,4.99,0.00,29.7,28.7,00.0,38.4,31.6,15.8,0000.0,0010.45,0003.90,0002.92
2022-05-18 19:22:00,,0825.7,5.02,0.00,29.6,27.8,00.0,38.4,31.3,16.3,0000.0,0011.58,0003.92,0002.93
2022-05-18 19:23:00,,0825.7,4.99,0.00,29.5,27.2,00.0,38.3,31.2,16.7,0000.0,0013.01,0003.94,0002.94
2022-05-18 19:24:00,,0825.7,5.00,0.00,29.5,27.1,00.0,38.3,31.1,17.0,0000.0,0013.22,0003.91,0002.93
2022-05-18 19:25:00,,0825.6,5.00,0.00,29.4,27.2,00.0,38.3,31.1,16.9,0000.0,0013.07,0003.92,0002.93
2022-05-18 19:26:00,,0825.6,5.01,0.00,29.4,27.4,00.0,38.3,31.1,17.3,0000.0,0013.63,0003.98,0002.94
2022-05-18 19:27:00,,0825.6,5.01,0.00,29.4,27.6,00.0,38.3,31.2,16.3,0000.0,0013.89,0003.98,0002.92
2022-05-18 19:28:00,,0825.5,5.01,0.00,29.4,27.8,00.0,38.3,31.2,16.3,0000.0,0014.51,0004.00,0002.91
2022-05-18 19:29:00,,0825.6,5.00,0.00,29.4,28.0,00.0,38.3,31.3,16.5,0000.0,0014.66,0004.00,0002.90
2022-05-18 19:30:00,,0825.6,5.00,0.00,29.4,28.1,00.0,38.3,31.3,16.0,0000.0,0014.67,0004.03,0002.88
2022-05-18 19:31:00,,0825.6,5.01,0.00,29.5,28.3,00.0,38.3,31.4,16.4,0000.0,0014.54,0004.06,0002.90
2022-05-18 19:32:00,,0825.6,5.00,0.00,29.5,28.4,00.0,38.3,31.4,16.3,0000.0,0014.59,0004.05,0002.89
2022-05-18 19:33:00,,0825.6,4.99,0.00,29.5,28.5,00.0,38.3,31.5,16.5,0000.0,0014.37,0004.06,0002.88
2022-05-18 19:34:00,,0825.6,5.02,0.00,29.6,28.7,00.0,38.3,31.5,16.4,0000.0,0012.70,0004.07,0002.90
2022-05-18 19:35:00,,0825.6,5.01,0.00,29.6,28.8,00.0,38.4,31.6,16.0,0000.0,0011.91,0004.08,0002.89
2022-05-18 19:36:00,,0825.6,4.99,0.00,29.6,28.6,00.0,38.4,31.5,16.0,0000.0,0012.09,0004.09,0002.91
2022-05-18 19:37:00,,0825.6,4.99,0.00,29.6,27.7,00.0,38.3,31.3,16.5,0000.0,0012.06,0004.08,0002.92
2022-05-18 19:38:00,,0825.5,5.01,0.00,29.5,27.2,00.0,38.2,31.1,16.7,0000.0,0012.72,0004.11,0002.94
2022-05-18 19:39:00,,0825.5,5.00,0.00,29.4,27.1,00.0,38.2,31.1,16.3,0000.0,0012.74,0004.10,0002.93
2022-05-18 19:40:00,,0825.5,5.00,0.00,29.4,27.2,00.0,38.2,31.1,16.3,0000.0,0012.71,0004.08,0002.94
2022-05-18 19:41:00,,0825.5,5.00,0.00,29.3,27.4,00.0,38.2,31.1,16.9,0000.0,0013.27,0004.09,0002.93
2022-05-18 19:42:00,,0825.4,5.00,0.00,29.3,27.6,00.0,38.2,31.1,16.4,0000.0,0012.84,0004.08,0002.94
2022-05-18 19:43:00,,0825.4,4.99,0.00,29.4,27.8,00.0,38.2,31.2,16.8,0000.0,0013.03,0004.06,0002.93
2022-05-18 19:44:00,,0825.4,5.01,0.00,29.4,27.9,00.0,38.2,31.2,16.7,0000.0,0012.78,0004.08,0002.95
2022-05-18 19:45:00,,0825.3,5.01,0.00,29.4,28.1,00.0,38.2,31.3,16.6,0000.0,0012.55,0004.05,0002.94
2022-05-18 19:46:00,,0825.3,5.00,0.00,29.4,28.3,00.0,38.3,31.4,16.6,0000.0,0012.92,0004.06,0002.94
2022-05-18 19:47:00,,0825.3,4.99,0.00,29.5,28.4,00.0,38.3,31.4,17.0,0000.0,0012.63,0004.03,0002.92
2022-05-18 19:48:00,,0825.3,5.01,0.00,29.5,28.5,00.0,38.3,31.4,16.8,0000.0,0012.80,0003.98,0002.91
2022-05-18 19:49:00,,0825.3,5.00,0.00,29.5,28.6,00.0,38.3,31.5,17.0,0000.0,0012.30,0003.91,0002.89
2022-05-18 19:50:00,,0825.3,4.99,0.00,29.6,28.7,00.0,38.3,31.5,16.4,0000.0,0011.68,0003.86,0002.89
2022-05-18 19:51:00,,0825.3,5.00,0.00,29.6,28.1,00.0,38.3,31.4,16.6,0000.0,0011.45,0003.85,0002.89
2022-05-18 19:52:00,,0825.3,5.01,0.00,29.5,27.3,00.0,38.2,31.1,16.4,0000.0,0010.79,0003.85,0002.88
2022-05-18 19:53:00,,0825.3,5.02,0.00,29.4,27.1,00.0,38.2,31.0,16.4,0000.0,0010.60,0003.84,0002.89
2022-05-18 19:54:00,,0825.3,5.00,0.00,29.3,27.1,00.0,38.2,31.0,16.6,0000.0,0010.11,0003.85,0002.90
2022-05-18 19:55:00,,0825.2,5.00,0.00,29.3,27.2,00.0,38.2,31.0,16.8,0000.0,0009.95,0003.82,0002.87
2022-05-18 19:56:00,,0825.2,5.00,0.00,29.3,27.4,00.0,38.2,31.1,16.8,0000.0,0010.27,0003.81,0002.86
2022-05-18 19:57:00,,0825.2,4.99,0.00,29.3,27.6,00.0,38.2,31.1,16.4,0000.0,0009.76,0003.75,0002.85
2022-05-18 19:58:00,,0825.2,5.01,0.00,29.3,27.8,00.0,38.2,31.2,17.0,0000.0,0009.70,0003.75,0002.84
2022-05-18 19:59:00,,0825.2,5.00,0.00,29.3,28.0,00.0,38.2,31.2,16.7,0000.0,0008.82,0003.77,0002.85
